Location: Wald
(31.7579°N, 86.6655°W)
Time: 20:29:04
(UTC+00:00)

Cosmos 1733 Rocket - Pass Details

Date: 14 July 2020
Orbit: 604 x 627 km, 82.5° (Epoch: 13 August)

Event Time Altitude Azimuth Distance (km) Brightness Sun altitude
Exits shadow 07:57:57 44° 25° (NNE) 843 4.1 -28.8°
Drops below altitude 10° 08:00:59 10° 11° (N) 1,954 6.4 -28.4°
Sets 08:03:12 0° 9° (N) 2,861 7.4 -28.2°
